OBJECT R, 66681

Orbit data source: Space-Track

You're viewing an Uncataloged Satellite

Recently launched and/or uncataloged satellites may have evolving metadata. Metadata may include but not limited to: Owner, Maufacturer, Bus, Motor, and Mission.

OBJECT R, 66681 is a satellite in SSO that was launched on Fri, 28 Nov 2025 UTC via an FALCON 9 launch vehicle from the Air Force Western Test Range (AFWTR). Unknown objects in Earth's orbit typically refer to objects detected orbiting the Earth but have not yet been identified or cataloged. These objects could be anything from previously untracked satellites, spent rocket stages, debris from satellite collisions, or even natural meteoroids temporarily captured by Earth's gravity.

Loading next visibility...
Identifier
66681, 2025-276R
Orbit
SSO
Country
Flag of TBDTBD
Related business
None
Manufacturer
Unknown
Mission
Operational Commercial Communications
Bus & Motor
Unknown
Mass
Unknown
Launch date (UTC)
2025-11-28 (6 months ago)
Launch vehicle
FALCON 9
Launch site
Air Force Western Test Range (AFWTR)
Object type
Unknown
Shape & HBR
Box, 0.1 m
Radar Cross Section
0.035 m²

Expand to show TLE details & history
Last TLE update: 1 day ago

TLE from 1 day ago
0 OBJECT R
1 66681U 25276R   26143.71716605  .00012297  00000-0  52335-3 0  9990
2 66681  97.4119 217.9322 0006961 106.5900 253.6102 15.23118903 26739
Epoch: 2026-05-23T17:12Z
TLE epoch observation values (Epoch: 2026-05-23T17:12:43.146Z)
Latitude
-0.00001°
Longitude
78.42277°
Altitude
500.888 km
Speed
7.613 km/s
True Right ascension
14h 31m 43s
True Declination
0° 00' 00"
Sunlit
Object was in full shadow at epoch
Visualization orbit readout
Latitude
Unknown
Longitude
Unknown
Altitude
Unknown
Speed
Unknown
Apparent Right ascension
Unknown
Apparent Declination
Unknown
Sunlit
N/A
Visualization observer readout
Local Sidereal Time
13:39:53
Azimuth
Unknown
Elevation
Unknown
Doppler factor
Unknown
Orbital elements
Apogee altitude
498.185 km
Perigee altitude
488.618 km
Semi-major axis
6,871.539 km
Eccentricity
0.0007
Inclination
97.4119°
RAAN
217.9322°
Arg. of periapsis
106.59°
True anomaly
253.53369°
Mean anomaly
253.6102°
Eccentric anomaly
253.57194°
Mean motion
3.81033 °/min
Orbital period
94.48 mins
BSTAR
0.00052335
Loading maneuver chart data...
Computing Atmospheric mass density...
Loading historical data...
Loading historical data...
Loading historical data...
Loading historical data...
Loading historical data...
Loading historical data...
Loading historical data...

Documentation

Showing up to 5 results
|